When you browse on this site, cookies collect data to enhance your experience and personalize the content and advertising you see.
Visit our Privacy Policy to learn more. By continuing to use the site, you agree to this use of cookies and data.
  • En España
  • Lista de países
  • Para 7 días
  • Temperatura del agua
  • El tiempo en el mapa
  • Informadores
  • user-avatar
    Iniciar sesión

    Tiempo cada hora Las Animas

    Hoy, 27 Enero, Lunes

    Tiempo Temperatura Precipitaciones Viento Presión Humedad
    00:00 +13°C° 0 mm 1 mps 764 mmHg 64%
    01:00 +12°C° 0 mm 0 mps 764 mmHg 64%
    02:00 +12°C° 0 mm 1 mps 764 mmHg 66%
    03:00 +12°C° 0 mm 1 mps 764 mmHg 69%
    04:00 +12°C° 0 mm 1 mps 764 mmHg 71%
    05:00 +13°C° 0 mm 1 mps 763 mmHg 67%
    06:00 +15°C° 0 mm 1 mps 763 mmHg 62%
    07:00 +16°C° 0 mm 0 mps 763 mmHg 57%
    08:00 +21°C° 0 mm 1 mps 763 mmHg 50%
    09:00 +23°C° 0 mm 1 mps 762 mmHg 43%
    10:00 +26°C° 0 mm 1 mps 762 mmHg 36%
    11:00 +27°C° 0 mm 2 mps 762 mmHg 37%
    12:00 +27°C° 0 mm 2 mps 762 mmHg 38%
    13:00 +28°C° 0 mm 3 mps 762 mmHg 38%
    14:00 +27°C° 0 mm 3 mps 761 mmHg 44%
    15:00 +26°C° 0 mm 3 mps 761 mmHg 50%
    16:00 +25°C° 0 mm 3 mps 761 mmHg 56%
    17:00 +22°C° 0 mm 3 mps 761 mmHg 64%
    18:00 +21°C° 0 mm 2 mps 761 mmHg 73%
    19:00 +19°C° 0 mm 2 mps 761 mmHg 81%
    20:00 +18°C° 0 mm 2 mps 761 mmHg 86%
    21:00 +19°C° 0 mm 1 mps 761 mmHg 91%
    22:00 +18°C° 0 mm 1 mps 761 mmHg 96%
    23:00 +18°C° 0.2 mm 1 mps 760 mmHg 97%

    Mañana, 28 Enero, Martes

    Tiempo Temperatura Precipitaciones Viento Presión Humedad
    00:00 +18°C° 0.2 mm 1 mps 760 mmHg 97%
    01:00 +18°C° 0.2 mm 1 mps 759 mmHg 98%
    02:00 +18°C° 0.1 mm 1 mps 759 mmHg 98%
    03:00 +18°C° 0.1 mm 1 mps 759 mmHg 98%
    04:00 +19°C° 0.1 mm 1 mps 759 mmHg 98%
    05:00 +18°C° 0 mm 2 mps 759 mmHg 95%
    06:00 +18°C° 0 mm 2 mps 759 mmHg 93%
    07:00 +18°C° 0 mm 3 mps 759 mmHg 90%
    08:00 +19°C° 0 mm 3 mps 760 mmHg 79%
    09:00 +20°C° 0 mm 3 mps 760 mmHg 68%
    10:00 +21°C° 0 mm 4 mps 761 mmHg 57%
    11:00 +21°C° 0 mm 4 mps 761 mmHg 52%
    12:00 +22°C° 0 mm 4 mps 761 mmHg 47%
    13:00 +22°C° 0 mm 4 mps 761 mmHg 42%
    14:00 +22°C° 0 mm 4 mps 761 mmHg 42%
    15:00 +22°C° 0 mm 4 mps 761 mmHg 42%
    16:00 +21°C° 0 mm 4 mps 761 mmHg 42%
    17:00 +20°C° 0 mm 4 mps 762 mmHg 46%
    18:00 +18°C° 0 mm 4 mps 762 mmHg 51%
    19:00 +17°C° 0 mm 3 mps 763 mmHg 55%
    20:00 +14°C° 0 mm 3 mps 763 mmHg 61%
    21:00 +13°C° 0 mm 2 mps 763 mmHg 67%
    22:00 +12°C° 0 mm 2 mps 764 mmHg 72%
    23:00 +10°C° 0 mm 2 mps 764 mmHg 77%

    Pasado mañana, 29 Enero, Miércoles

    Tiempo Temperatura Precipitaciones Viento Presión Humedad
    00:00 +10°C° 0 mm 1 mps 764 mmHg 81%
    01:00 +9°C° 0 mm 1 mps 764 mmHg 86%
    02:00 +9°C° 0 mm 1 mps 764 mmHg 89%
    03:00 +8°C° 0 mm 1 mps 764 mmHg 93%
    04:00 +8°C° 0 mm 1 mps 764 mmHg 96%
    05:00 +8°C° 0 mm 2 mps 764 mmHg 87%
    06:00 +10°C° 0 mm 2 mps 764 mmHg 79%
    07:00 +12°C° 0 mm 2 mps 764 mmHg 70%
    08:00 +14°C° 0 mm 2 mps 764 mmHg 60%
    09:00 +16°C° 0 mm 2 mps 764 mmHg 50%
    10:00 +18°C° 0 mm 2 mps 764 mmHg 40%
    11:00 +20°C° 0 mm 3 mps 763 mmHg 38%
    12:00 +21°C° 0 mm 3 mps 763 mmHg 35%
    13:00 +22°C° 0 mm 3 mps 763 mmHg 33%
    14:00 +22°C° 0 mm 3 mps 763 mmHg 33%
    15:00 +23°C° 0 mm 4 mps 762 mmHg 34%
    16:00 +23°C° 0 mm 4 mps 762 mmHg 35%
    17:00 +21°C° 0 mm 3 mps 762 mmHg 41%
    18:00 +19°C° 0 mm 3 mps 763 mmHg 47%
    19:00 +17°C° 0 mm 3 mps 763 mmHg 53%
    20:00 +15°C° 0 mm 2 mps 764 mmHg 59%
    21:00 +13°C° 0 mm 2 mps 764 mmHg 64%
    22:00 +11°C° 0 mm 1 mps 764 mmHg 70%
    23:00 +11°C° 0 mm 1 mps 764 mmHg 76%

    30 Enero, Jueves

    Tiempo Temperatura Precipitaciones Viento Presión Humedad
    00:00 +10°C° 0 mm 1 mps 764 mmHg 81%
    01:00 +9°C° 0 mm 1 mps 763 mmHg 87%
    02:00 +9°C° 0 mm 1 mps 763 mmHg 90%
    03:00 +8°C° 0 mm 1 mps 763 mmHg 93%
    04:00 +8°C° 0 mm 1 mps 763 mmHg 95%
    05:00 +9°C° 0 mm 1 mps 763 mmHg 89%
    06:00 +11°C° 0 mm 1 mps 763 mmHg 82%
    07:00 +12°C° 0 mm 1 mps 763 mmHg 76%
    08:00 +16°C° 0 mm 1 mps 762 mmHg 62%
    09:00 +20°C° 0 mm 1 mps 762 mmHg 49%
    10:00 +24°C° 0 mm 2 mps 762 mmHg 36%
    11:00 +25°C° 0 mm 2 mps 761 mmHg 35%
    12:00 +26°C° 0 mm 2 mps 761 mmHg 34%
    13:00 +27°C° 0 mm 3 mps 761 mmHg 34%
    14:00 +26°C° 0 mm 3 mps 761 mmHg 36%
    15:00 +26°C° 0 mm 3 mps 761 mmHg 38%
    16:00 +26°C° 0 mm 3 mps 760 mmHg 40%
    17:00 +24°C° 0 mm 3 mps 761 mmHg 51%
    18:00 +20°C° 0 mm 3 mps 761 mmHg 62%
    19:00 +18°C° 0 mm 2 mps 761 mmHg 73%
    20:00 +17°C° 0 mm 2 mps 761 mmHg 80%
    21:00 +16°C° 0 mm 1 mps 762 mmHg 86%
    22:00 +14°C° 0 mm 1 mps 762 mmHg 93%
    23:00 +14°C° 0 mm 1 mps 761 mmHg 94%

    31 Enero, Viernes

    Tiempo Temperatura Precipitaciones Viento Presión Humedad
    00:00 +14°C° 0 mm 1 mps 761 mmHg 95%
    01:00 +14°C° 0 mm 1 mps 761 mmHg 97%
    02:00 +12°C° 0 mm 0 mps 761 mmHg 97%
    03:00 +12°C° 0 mm 0 mps 761 mmHg 97%
    04:00 +12°C° 0 mm 0 mps 761 mmHg 98%
    05:00 +14°C° 0 mm 0 mps 761 mmHg 91%
    06:00 +15°C° 0 mm 0 mps 761 mmHg 85%
    07:00 +17°C° 0 mm 0 mps 761 mmHg 79%
    08:00 +21°C° 0 mm 1 mps 760 mmHg 70%
    09:00 +24°C° 0 mm 1 mps 760 mmHg 62%
    10:00 +26°C° 0 mm 1 mps 760 mmHg 53%
    11:00 +26°C° 0 mm 2 mps 760 mmHg 53%
    12:00 +26°C° 0 mm 2 mps 759 mmHg 53%
    13:00 +27°C° 0 mm 3 mps 759 mmHg 53%
    14:00 +26°C° 0 mm 3 mps 759 mmHg 54%
    15:00 +25°C° 0 mm 3 mps 758 mmHg 56%
    16:00 +25°C° 0 mm 3 mps 758 mmHg 58%
    17:00 +23°C° 0 mm 2 mps 758 mmHg 66%
    18:00 +20°C° 0 mm 2 mps 758 mmHg 74%
    19:00 +19°C° 0 mm 1 mps 758 mmHg 83%
    20:00 +18°C° 0 mm 1 mps 758 mmHg 88%
    21:00 +18°C° 0 mm 1 mps 758 mmHg 93%
    22:00 +16°C° 0 mm 1 mps 759 mmHg 98%
    23:00 +16°C° 0 mm 1 mps 758 mmHg 97%

    1 Febrero, Sábado

    Tiempo Temperatura Precipitaciones Viento Presión Humedad
    00:00 +16°C° 0 mm 2 mps 758 mmHg 96%
    01:00 +17°C° 0 mm 2 mps 757 mmHg 95%
    02:00 +17°C° 0.2 mm 2 mps 757 mmHg 95%
    03:00 +17°C° 0.2 mm 2 mps 756 mmHg 96%
    04:00 +17°C° 0.2 mm 3 mps 756 mmHg 96%
    05:00 +17°C° 0.5 mm 3 mps 756 mmHg 96%
    06:00 +17°C° 0.5 mm 3 mps 755 mmHg 96%
    07:00 +17°C° 0.5 mm 3 mps 755 mmHg 95%
    08:00 +17°C° 0.6 mm 3 mps 755 mmHg 95%
    09:00 +17°C° 0.6 mm 4 mps 755 mmHg 95%
    10:00 +18°C° 0.6 mm 4 mps 755 mmHg 95%
    11:00 +17°C° 1.5 mm 4 mps 755 mmHg 96%
    12:00 +16°C° 1.5 mm 3 mps 755 mmHg 96%
    13:00 +16°C° 1.5 mm 3 mps 756 mmHg 97%
    14:00 +15°C° 1.2 mm 2 mps 756 mmHg 97%
    15:00 +15°C° 1.2 mm 2 mps 756 mmHg 98%
    16:00 +14°C° 1.2 mm 1 mps 757 mmHg 98%
    17:00 +14°C° 0.4 mm 1 mps 758 mmHg 98%
    18:00 +14°C° 0.4 mm 1 mps 758 mmHg 98%
    19:00 +14°C° 0.4 mm 1 mps 759 mmHg 98%
    20:00 +13°C° 0.1 mm 1 mps 760 mmHg 98%
    21:00 +12°C° 0.1 mm 1 mps 760 mmHg 98%
    22:00 +10°C° 0.1 mm 0 mps 761 mmHg 98%
    23:00 +10°C° 0 mm 0 mps 761 mmHg 98%
    Mostrar más